GEC8224 EDDF-MMSM

Flight info

Callsign GEC8224
Flight time N/A
Altitude 30000
Route OBOKA2L OBOKA Z28 DIBIR DCT BUDIP DCT MIMVA DCT GETNO DCT KUGUR/N0470F280 DCT SUNOT/M081F280 DCT 58N020W 59N030W 59N040W 57N050W DCT HOIST/N0460F300 DCT VANSI DCT STAFE DCT SSM/N0479F320 DCT STL J101 IAH J29 PSX J177 TAM UT163 VITOS VITOS1A
Aircraft B77L/H-SDE2E3FGHIJ1J3J4J5M1P2RWXYZ/LB1D1

Departure

Time N/A
Airport Frankfurt Main Airport (EDDF)

Arrival

Time 2026-04-12 08:29
Airport Felipe Ángeles International Airport (MMSM)
Time Latitude Longitude Altitude Speed Heading
2026-04-12 05:45 38.36230 -90.79169 34174 ft 483 kts 212°
2026-04-12 05:45 38.33242 -90.81123 34180 ft 483 kts 212°
2026-04-12 05:45 38.27262 -90.85026 34191 ft 483 kts 212°
2026-04-12 05:46 38.21282 -90.88924 34197 ft 483 kts 212°
2026-04-12 05:46 38.15292 -90.92821 34202 ft 484 kts 212°
2026-04-12 05:47 38.09298 -90.96715 34202 ft 484 kts 212°
2026-04-12 05:47 38.03296 -91.00600 34200 ft 484 kts 212°
2026-04-12 05:48 37.97290 -91.04487 34197 ft 485 kts 212°
2026-04-12 05:48 37.91284 -91.08368 34206 ft 485 kts 212°
2026-04-12 05:49 37.85286 -91.12235 34204 ft 485 kts 212°
2026-04-12 05:49 37.79274 -91.16102 34202 ft 485 kts 212°
2026-04-12 05:50 37.73300 -91.19937 34206 ft 485 kts 212°
2026-04-12 05:50 37.67291 -91.23789 34202 ft 484 kts 212°
2026-04-12 05:51 37.61288 -91.27630 34202 ft 484 kts 213°
2026-04-12 05:51 37.55286 -91.31462 34204 ft 483 kts 213°
2026-04-12 05:52 37.49288 -91.35287 34199 ft 483 kts 212°
2026-04-12 05:52 37.43336 -91.39075 34201 ft 482 kts 212°
2026-04-12 05:53 37.37350 -91.42878 34199 ft 482 kts 212°
2026-04-12 05:53 37.31367 -91.46671 34188 ft 482 kts 212°
2026-04-12 05:54 37.25387 -91.50456 34211 ft 481 kts 212°
2026-04-12 05:54 37.19451 -91.54207 34206 ft 481 kts 212°
2026-04-12 05:55 37.13475 -91.57977 34201 ft 481 kts 212°
2026-04-12 05:55 37.07498 -91.61739 34195 ft 480 kts 212°
2026-04-12 05:56 37.01523 -91.65493 34202 ft 480 kts 212°
2026-04-12 05:56 36.95589 -91.69217 34203 ft 481 kts 212°
2026-04-12 05:57 36.89610 -91.72962 34218 ft 481 kts 212°
2026-04-12 05:57 36.83621 -91.76706 34216 ft 482 kts 212°
2026-04-12 05:58 36.77613 -91.80455 34216 ft 483 kts 212°
2026-04-12 05:58 36.71598 -91.84201 34214 ft 484 kts 212°
2026-04-12 05:59 36.65614 -91.87922 34206 ft 485 kts 212°
2026-04-12 05:59 36.59573 -91.91672 34198 ft 486 kts 212°
2026-04-12 06:00 36.53520 -91.95425 34194 ft 486 kts 212°
2026-04-12 06:00 36.47455 -91.99176 34194 ft 487 kts 212°
2026-04-12 06:01 36.41423 -92.02900 34189 ft 488 kts 212°
2026-04-12 06:01 36.35342 -92.06649 34184 ft 488 kts 212°
2026-04-12 06:02 36.29256 -92.10391 34186 ft 488 kts 211°
2026-04-12 06:02 36.23171 -92.14126 34190 ft 488 kts 212°
2026-04-12 06:03 36.17079 -92.17860 34188 ft 488 kts 211°
2026-04-12 06:03 36.11037 -92.21561 34183 ft 488 kts 211°
2026-04-12 06:04 36.04953 -92.25281 34194 ft 487 kts 211°
2026-04-12 06:04 35.98879 -92.28987 34191 ft 487 kts 211°
2026-04-12 06:05 35.92810 -92.32683 34188 ft 486 kts 211°
2026-04-12 06:05 35.86786 -92.36343 34190 ft 486 kts 211°
2026-04-12 06:06 35.80729 -92.40020 34201 ft 485 kts 211°
2026-04-12 06:06 35.74673 -92.43681 34205 ft 484 kts 211°
2026-04-12 06:07 35.68628 -92.47337 34206 ft 484 kts 211°
2026-04-12 06:07 35.62597 -92.50978 34212 ft 483 kts 211°
2026-04-12 06:08 35.56605 -92.54596 34206 ft 482 kts 211°
2026-04-12 06:08 35.50581 -92.58224 34213 ft 482 kts 211°
2026-04-12 06:09 35.44558 -92.61841 34200 ft 482 kts 210°
2026-04-12 06:09 35.38531 -92.65454 34197 ft 482 kts 210°
2026-04-12 06:10 35.32539 -92.69043 34185 ft 482 kts 210°
2026-04-12 06:10 35.26513 -92.72645 34184 ft 482 kts 210°
2026-04-12 06:11 35.20478 -92.76246 34185 ft 482 kts 210°
2026-04-12 06:11 35.14448 -92.79839 34187 ft 482 kts 210°
2026-04-12 06:12 35.08411 -92.83430 34186 ft 482 kts 210°
2026-04-12 06:12 35.02416 -92.86988 34185 ft 482 kts 210°
2026-04-12 06:13 34.96377 -92.90567 34182 ft 483 kts 210°
2026-04-12 06:13 34.90337 -92.94144 34184 ft 483 kts 210°
2026-04-12 06:14 34.84293 -92.97714 34178 ft 483 kts 210°
2026-04-12 06:14 34.78286 -93.01258 34186 ft 483 kts 210°
2026-04-12 06:15 34.72228 -93.04817 34188 ft 484 kts 210°
2026-04-12 06:15 34.66168 -93.08381 34194 ft 484 kts 210°
2026-04-12 06:16 34.60097 -93.11946 34198 ft 485 kts 210°
2026-04-12 06:16 34.54059 -93.15485 34203 ft 486 kts 209°
2026-04-12 06:17 34.47962 -93.19052 34202 ft 486 kts 210°
2026-04-12 06:17 34.41866 -93.22610 34197 ft 487 kts 209°
2026-04-12 06:18 34.35755 -93.26177 34202 ft 488 kts 209°
2026-04-12 06:18 34.29637 -93.29739 34191 ft 488 kts 209°
2026-04-12 06:19 34.23557 -93.33277 34184 ft 488 kts 209°
2026-04-12 06:19 34.17429 -93.36836 34182 ft 488 kts 209°
2026-04-12 06:20 34.11304 -93.40384 34183 ft 488 kts 209°
2026-04-12 06:20 34.05180 -93.43926 34183 ft 488 kts 209°
2026-04-12 06:21 33.99049 -93.47466 34175 ft 488 kts 209°
2026-04-12 06:21 33.92967 -93.50996 34183 ft 488 kts 209°
2026-04-12 06:22 33.86847 -93.54528 34174 ft 488 kts 209°
2026-04-12 06:22 33.80724 -93.58046 34180 ft 488 kts 209°
2026-04-12 06:23 33.74601 -93.61557 34175 ft 487 kts 209°
2026-04-12 06:23 33.68520 -93.65036 34176 ft 487 kts 208°
2026-04-12 06:24 33.62394 -93.68520 34179 ft 487 kts 208°
2026-04-12 06:24 33.56269 -93.72015 34178 ft 487 kts 208°
2026-04-12 06:25 33.50147 -93.75509 34173 ft 488 kts 208°
2026-04-12 06:25 33.44021 -93.78999 34173 ft 488 kts 208°
2026-04-12 06:26 33.37932 -93.82461 34173 ft 487 kts 208°
2026-04-12 06:26 33.31806 -93.85938 34174 ft 488 kts 208°
2026-04-12 06:27 33.25675 -93.89413 34174 ft 488 kts 208°
2026-04-12 06:27 33.19544 -93.92881 34180 ft 488 kts 208°
2026-04-12 06:28 33.13414 -93.96344 34183 ft 488 kts 208°
2026-04-12 06:28 33.07319 -93.99782 34184 ft 487 kts 208°
2026-04-12 06:29 33.01187 -94.03235 34188 ft 487 kts 208°
2026-04-12 06:29 32.95057 -94.06682 34188 ft 488 kts 208°
2026-04-12 06:30 32.88918 -94.10129 34181 ft 488 kts 208°
2026-04-12 06:30 32.82780 -94.13570 34169 ft 488 kts 208°
2026-04-12 06:31 32.76685 -94.16981 34179 ft 488 kts 208°
2026-04-12 06:31 32.70546 -94.20412 34177 ft 487 kts 208°
2026-04-12 06:32 32.64406 -94.23838 34172 ft 487 kts 208°
2026-04-12 06:32 32.58272 -94.27256 34169 ft 487 kts 208°
2026-04-12 06:33 32.52137 -94.30669 34176 ft 487 kts 208°
2026-04-12 06:33 32.46049 -94.34050 34175 ft 486 kts 208°
2026-04-12 06:34 32.39926 -94.37447 34182 ft 486 kts 208°
2026-04-12 06:34 32.33802 -94.40838 34177 ft 485 kts 208°
2026-04-12 06:35 32.24631 -94.45908 34177 ft 485 kts 208°
2026-04-12 06:36 32.18556 -94.49259 34185 ft 485 kts 208°
2026-04-12 06:36 32.12441 -94.52629 34191 ft 485 kts 208°
2026-04-12 06:37 32.06322 -94.55995 34190 ft 485 kts 208°
2026-04-12 06:37 32.00203 -94.59356 34185 ft 486 kts 208°
2026-04-12 06:38 31.94118 -94.62694 34199 ft 485 kts 208°
2026-04-12 06:38 31.87994 -94.66047 34206 ft 485 kts 207°
2026-04-12 06:39 31.81870 -94.69397 34199 ft 485 kts 207°
2026-04-12 06:39 31.75746 -94.72741 34195 ft 485 kts 207°
2026-04-12 06:40 31.69625 -94.76078 34213 ft 485 kts 207°
2026-04-12 06:40 31.63546 -94.79388 34203 ft 485 kts 207°
2026-04-12 06:41 31.57425 -94.82716 34191 ft 485 kts 207°
2026-04-12 06:41 31.51308 -94.86037 34209 ft 485 kts 207°
2026-04-12 06:42 31.45185 -94.89356 34203 ft 485 kts 207°
2026-04-12 06:42 31.39108 -94.92646 34197 ft 485 kts 207°
2026-04-12 06:43 31.32984 -94.95956 34192 ft 485 kts 207°
2026-04-12 06:43 31.26861 -94.99261 34190 ft 485 kts 207°
2026-04-12 06:44 31.20737 -95.02562 34193 ft 485 kts 207°
2026-04-12 06:44 31.14656 -95.05835 34192 ft 485 kts 207°
2026-04-12 06:45 31.08529 -95.09128 34184 ft 485 kts 207°
2026-04-12 06:45 31.02403 -95.12416 34183 ft 485 kts 207°
2026-04-12 06:46 30.96276 -95.15699 34185 ft 485 kts 207°
2026-04-12 06:46 30.90190 -95.18957 34181 ft 485 kts 207°
2026-04-12 06:47 30.84059 -95.22233 34216 ft 486 kts 207°
2026-04-12 06:47 30.80981 -95.23876 34427 ft 486 kts 207°
2026-04-12 06:47 30.77919 -95.25509 34733 ft 483 kts 207°
2026-04-12 06:47 30.74867 -95.27135 35061 ft 481 kts 208°
2026-04-12 06:48 30.71834 -95.28750 35359 ft 478 kts 208°
2026-04-12 06:48 30.68813 -95.30358 35616 ft 477 kts 208°
2026-04-12 06:48 30.65844 -95.31938 35895 ft 475 kts 208°
2026-04-12 06:48 30.62848 -95.33530 36218 ft 473 kts 208°
2026-04-12 06:49 30.59854 -95.35122 36165 ft 472 kts 208°
2026-04-12 06:49 30.53926 -95.38266 36175 ft 465 kts 208°
2026-04-12 06:50 30.48052 -95.41380 36188 ft 464 kts 208°
2026-04-12 06:50 30.42184 -95.44488 36184 ft 464 kts 208°
2026-04-12 06:51 30.36351 -95.47572 36185 ft 464 kts 208°
2026-04-12 06:51 30.30470 -95.50677 36184 ft 465 kts 208°
2026-04-12 06:52 30.24575 -95.53785 36178 ft 466 kts 208°
2026-04-12 06:52 30.18680 -95.56889 36165 ft 466 kts 208°
2026-04-12 06:53 30.12814 -95.59973 36167 ft 467 kts 208°
2026-04-12 06:53 30.06904 -95.63077 36167 ft 467 kts 208°
2026-04-12 06:54 30.00993 -95.66176 36164 ft 467 kts 208°
2026-04-12 06:54 29.95084 -95.69272 36160 ft 466 kts 208°
2026-04-12 06:55 29.89213 -95.72342 36166 ft 466 kts 208°
2026-04-12 06:55 29.83313 -95.75424 36170 ft 465 kts 208°
2026-04-12 06:56 29.77417 -95.78501 36173 ft 465 kts 208°
2026-04-12 06:56 29.71529 -95.81569 36170 ft 464 kts 208°
2026-04-12 06:57 29.65686 -95.84609 36168 ft 464 kts 208°
2026-04-12 06:57 29.59814 -95.87661 36164 ft 463 kts 208°
2026-04-12 06:58 29.53947 -95.90706 36155 ft 462 kts 208°
2026-04-12 06:58 29.49077 -95.93230 36152 ft 462 kts 208°
2026-04-12 06:59 29.43223 -95.96262 36148 ft 461 kts 208°
2026-04-12 06:59 29.36422 -95.99779 36155 ft 461 kts 208°
2026-04-12 07:00 29.28628 -96.03803 36164 ft 462 kts 208°
2026-04-12 07:00 29.22768 -96.06824 36168 ft 462 kts 208°
2026-04-12 07:01 29.15944 -96.10338 36165 ft 463 kts 208°
2026-04-12 07:01 29.11020 -96.12870 36161 ft 463 kts 208°
2026-04-12 07:02 29.05177 -96.15871 36154 ft 464 kts 208°
2026-04-12 07:02 28.99293 -96.18889 36148 ft 464 kts 208°
2026-04-12 07:03 28.92450 -96.22395 36149 ft 464 kts 207°
2026-04-12 07:03 28.87521 -96.24917 36152 ft 463 kts 207°
2026-04-12 07:04 28.81679 -96.27904 36157 ft 463 kts 207°
2026-04-12 07:04 28.75709 -96.30692 36167 ft 466 kts 201°
2026-04-12 07:05 28.69391 -96.32479 36165 ft 469 kts 196°
2026-04-12 07:05 28.63021 -96.34069 36153 ft 469 kts 196°
2026-04-12 07:06 28.56692 -96.35669 36150 ft 469 kts 197°
2026-04-12 07:06 28.50331 -96.37294 36147 ft 469 kts 197°
2026-04-12 07:07 28.43968 -96.38926 36139 ft 468 kts 197°
2026-04-12 07:07 28.37612 -96.40554 36134 ft 468 kts 197°
2026-04-12 07:08 28.31298 -96.42168 36131 ft 468 kts 197°
2026-04-12 07:08 28.24951 -96.43789 36124 ft 468 kts 196°
2026-04-12 07:09 28.18600 -96.45408 36118 ft 467 kts 196°
2026-04-12 07:09 28.12260 -96.47023 36116 ft 467 kts 196°
2026-04-12 07:10 28.05918 -96.48637 36113 ft 467 kts 196°
2026-04-12 07:10 27.99618 -96.50237 36112 ft 467 kts 196°
2026-04-12 07:11 27.93272 -96.51847 36108 ft 468 kts 196°
2026-04-12 07:11 27.86921 -96.53457 36105 ft 468 kts 196°
2026-04-12 07:12 27.80564 -96.55067 36110 ft 468 kts 196°
2026-04-12 07:12 27.74241 -96.56665 36104 ft 469 kts 196°
2026-04-12 07:13 27.67871 -96.58274 36102 ft 469 kts 196°
2026-04-12 07:13 27.61489 -96.59884 36102 ft 470 kts 196°
2026-04-12 07:14 27.55106 -96.61492 36099 ft 470 kts 196°
2026-04-12 07:14 27.48718 -96.63099 36103 ft 471 kts 196°
2026-04-12 07:15 27.42365 -96.64696 36094 ft 471 kts 196°
2026-04-12 07:15 27.35968 -96.66302 36088 ft 471 kts 196°
2026-04-12 07:16 27.29581 -96.67903 36093 ft 470 kts 196°
2026-04-12 07:16 27.23190 -96.69503 36093 ft 470 kts 196°
2026-04-12 07:17 27.16854 -96.71089 36089 ft 470 kts 196°
2026-04-12 07:17 27.10473 -96.72683 36088 ft 469 kts 196°
2026-04-12 07:18 27.04099 -96.74274 36089 ft 469 kts 196°
2026-04-12 07:18 26.97725 -96.75863 36087 ft 469 kts 197°
2026-04-12 07:19 26.91401 -96.77438 36086 ft 469 kts 197°
2026-04-12 07:19 26.85038 -96.79020 36084 ft 468 kts 197°
2026-04-12 07:20 26.78674 -96.80601 36081 ft 468 kts 197°
2026-04-12 07:20 26.72309 -96.82181 36085 ft 468 kts 197°
2026-04-12 07:21 26.65990 -96.83747 36084 ft 469 kts 197°
2026-04-12 07:21 26.59620 -96.85324 36081 ft 469 kts 196°
2026-04-12 07:22 26.53251 -96.86899 36082 ft 469 kts 196°
2026-04-12 07:22 26.46882 -96.88472 36083 ft 469 kts 197°
2026-04-12 07:23 26.40552 -96.90034 36082 ft 469 kts 197°
2026-04-12 07:23 26.34182 -96.91604 36078 ft 469 kts 197°
2026-04-12 07:24 26.27815 -96.93171 36077 ft 468 kts 197°
2026-04-12 07:24 26.21449 -96.94737 36081 ft 468 kts 197°
2026-04-12 07:25 26.15135 -96.96288 36078 ft 468 kts 197°
2026-04-12 07:25 26.08783 -96.97847 36080 ft 467 kts 197°
2026-04-12 07:26 26.02431 -96.99404 36079 ft 467 kts 197°
2026-04-12 07:26 25.96076 -97.00919 36077 ft 467 kts 196°
2026-04-12 07:27 25.89745 -97.02330 36080 ft 467 kts 195°
2026-04-12 07:27 25.83369 -97.03746 36080 ft 467 kts 195°
2026-04-12 07:28 25.77004 -97.05173 36083 ft 467 kts 195°
2026-04-12 07:28 25.70634 -97.06605 36080 ft 467 kts 195°
2026-04-12 07:29 25.64307 -97.08025 36079 ft 467 kts 195°
2026-04-12 07:29 25.57936 -97.09453 36076 ft 467 kts 195°
2026-04-12 07:30 25.51566 -97.10898 36087 ft 467 kts 196°
2026-04-12 07:30 25.45211 -97.12417 36082 ft 467 kts 197°
2026-04-12 07:31 25.38858 -97.13946 36084 ft 467 kts 197°
2026-04-12 07:31 25.32548 -97.15453 36081 ft 467 kts 197°
2026-04-12 07:32 25.26186 -97.16965 36079 ft 467 kts 196°
2026-04-12 07:32 25.19826 -97.18474 36081 ft 467 kts 197°
2026-04-12 07:33 25.13470 -97.19982 36073 ft 467 kts 197°
2026-04-12 07:33 25.07153 -97.21479 36072 ft 467 kts 197°
2026-04-12 07:34 25.00799 -97.22983 36077 ft 467 kts 197°
2026-04-12 07:34 24.94440 -97.24487 36069 ft 467 kts 197°
2026-04-12 07:35 24.88087 -97.25995 36071 ft 467 kts 197°
2026-04-12 07:35 24.81779 -97.27493 36068 ft 467 kts 197°
2026-04-12 07:36 24.75435 -97.28998 36067 ft 467 kts 197°
2026-04-12 07:36 24.69089 -97.30501 36066 ft 466 kts 197°
2026-04-12 07:37 24.62742 -97.32003 36065 ft 466 kts 197°
2026-04-12 07:37 24.56441 -97.33493 36066 ft 466 kts 197°
2026-04-12 07:38 24.50107 -97.35016 36061 ft 465 kts 198°
2026-04-12 07:38 24.43819 -97.36686 36072 ft 465 kts 198°
2026-04-12 07:39 24.37527 -97.38361 36067 ft 465 kts 198°
2026-04-12 07:39 24.31230 -97.39999 36069 ft 466 kts 197°
2026-04-12 07:40 24.24928 -97.41468 36068 ft 466 kts 196°
2026-04-12 07:40 24.18572 -97.42893 36064 ft 466 kts 196°
2026-04-12 07:41 24.12215 -97.44334 36064 ft 466 kts 196°
2026-04-12 07:41 24.05862 -97.45787 36069 ft 466 kts 196°
2026-04-12 07:42 23.99512 -97.47244 36068 ft 467 kts 196°
2026-04-12 07:43 23.86835 -97.50147 36069 ft 467 kts 196°
2026-04-12 07:43 23.80473 -97.51601 36068 ft 467 kts 196°
2026-04-12 07:44 23.74104 -97.53055 36070 ft 468 kts 196°
2026-04-12 07:44 23.67775 -97.54499 36070 ft 468 kts 196°
2026-04-12 07:45 23.61398 -97.55952 36070 ft 468 kts 196°
2026-04-12 07:45 23.55019 -97.57404 36072 ft 469 kts 196°
2026-04-12 07:46 23.48632 -97.58856 36073 ft 469 kts 196°
2026-04-12 07:46 23.42286 -97.60298 36071 ft 469 kts 196°
2026-04-12 07:47 23.35897 -97.61748 36072 ft 469 kts 196°
2026-04-12 07:47 23.29509 -97.63197 36076 ft 469 kts 196°
2026-04-12 07:48 23.23118 -97.64645 36077 ft 469 kts 196°
2026-04-12 07:48 23.16720 -97.66097 36074 ft 469 kts 196°
2026-04-12 07:49 23.10385 -97.67569 36077 ft 469 kts 196°
2026-04-12 07:49 23.03998 -97.69058 36077 ft 469 kts 196°
2026-04-12 07:50 22.97613 -97.70542 36077 ft 469 kts 196°
2026-04-12 07:50 22.91227 -97.72022 36079 ft 469 kts 196°
2026-04-12 07:51 22.84882 -97.73490 36074 ft 470 kts 196°
2026-04-12 07:51 22.78485 -97.74970 36072 ft 470 kts 196°
2026-04-12 07:52 22.72092 -97.76447 36075 ft 470 kts 196°
2026-04-12 07:52 22.65689 -97.77922 36075 ft 471 kts 196°
2026-04-12 07:53 22.59320 -97.79378 36075 ft 471 kts 196°
2026-04-12 07:53 22.52911 -97.80842 36075 ft 471 kts 196°
2026-04-12 07:54 22.46496 -97.82308 36071 ft 471 kts 196°
2026-04-12 07:54 22.40078 -97.83773 36068 ft 471 kts 196°
2026-04-12 07:55 22.33659 -97.85238 36066 ft 472 kts 196°
2026-04-12 07:55 22.27231 -97.86692 36072 ft 472 kts 195°
2026-04-12 07:56 22.20820 -97.88018 36063 ft 473 kts 195°
2026-04-12 07:56 22.14394 -97.89311 36074 ft 473 kts 195°
2026-04-12 07:57 22.07927 -97.90624 36072 ft 473 kts 195°
2026-04-12 07:57 22.01461 -97.91947 36071 ft 473 kts 195°
2026-04-12 07:58 21.94992 -97.93272 36053 ft 473 kts 195°
2026-04-12 07:58 21.88563 -97.94588 36063 ft 473 kts 195°
2026-04-12 07:59 21.82090 -97.95910 36054 ft 474 kts 195°
2026-04-12 07:59 21.75617 -97.97231 36052 ft 474 kts 195°
2026-04-12 08:00 21.69143 -97.98552 36047 ft 474 kts 195°
2026-04-12 08:00 21.62702 -97.99864 36039 ft 474 kts 195°
2026-04-12 08:01 21.56225 -98.01183 36065 ft 474 kts 195°
2026-04-12 08:01 21.49745 -98.02501 36059 ft 474 kts 195°
2026-04-12 08:02 21.43263 -98.03820 36061 ft 474 kts 195°
2026-04-12 08:02 21.36789 -98.05140 36067 ft 474 kts 195°
2026-04-12 08:03 21.30353 -98.06452 36072 ft 474 kts 195°
2026-04-12 08:03 21.23872 -98.07771 36069 ft 474 kts 195°
2026-04-12 08:04 21.17399 -98.09088 36073 ft 474 kts 195°
2026-04-12 08:04 21.10922 -98.10404 36075 ft 474 kts 195°
2026-04-12 08:05 21.04478 -98.11712 36073 ft 474 kts 195°
2026-04-12 08:05 20.97989 -98.13028 36079 ft 475 kts 195°
2026-04-12 08:06 20.91501 -98.14344 36076 ft 475 kts 195°
2026-04-12 08:06 20.85007 -98.15657 36093 ft 475 kts 195°
2026-04-12 08:07 20.78510 -98.16962 36094 ft 475 kts 194°
2026-04-12 08:07 20.72052 -98.18250 36100 ft 475 kts 195°
2026-04-12 08:08 20.65552 -98.19549 36123 ft 476 kts 195°
2026-04-12 08:08 20.59048 -98.20849 36115 ft 472 kts 195°
2026-04-12 08:09 20.55861 -98.21481 36095 ft 459 kts 195°
2026-04-12 08:09 20.52735 -98.22101 35523 ft 456 kts 195°
2026-04-12 08:09 20.49649 -98.22717 34872 ft 446 kts 194°
2026-04-12 08:09 20.46630 -98.23318 34110 ft 437 kts 194°
2026-04-12 08:10 20.43659 -98.23913 33254 ft 433 kts 194°
2026-04-12 08:10 20.40712 -98.24505 32440 ft 442 kts 194°
2026-04-12 08:10 20.37636 -98.25123 31584 ft 460 kts 193°
2026-04-12 08:10 20.34413 -98.25768 30638 ft 481 kts 193°
2026-04-12 08:11 20.31098 -98.26426 29725 ft 483 kts 193°
2026-04-12 08:11 20.27844 -98.27069 28966 ft 468 kts 192°
2026-04-12 08:11 20.24692 -98.27695 28285 ft 454 kts 193°
2026-04-12 08:11 20.21639 -98.28305 27675 ft 440 kts 192°
2026-04-12 08:12 20.18740 -98.29156 27055 ft 430 kts 207°
2026-04-12 08:12 20.16269 -98.30856 26511 ft 432 kts 223°
2026-04-12 08:12 20.14286 -98.33308 26031 ft 446 kts 238°
2026-04-12 08:12 20.12861 -98.36276 25625 ft 453 kts 249°
2026-04-12 08:13 20.12184 -98.39540 25201 ft 452 kts 266°
2026-04-12 08:13 20.12080 -98.42888 24823 ft 455 kts 268°
2026-04-12 08:13 20.12040 -98.46268 24414 ft 457 kts 269°
2026-04-12 08:13 20.12002 -98.49646 23995 ft 455 kts 269°
2026-04-12 08:14 20.11946 -98.52994 23552 ft 450 kts 268°
2026-04-12 08:14 20.11867 -98.56304 23114 ft 444 kts 268°
2026-04-12 08:14 20.11773 -98.59568 22704 ft 439 kts 268°
2026-04-12 08:14 20.11673 -98.62761 22319 ft 437 kts 268°
2026-04-12 08:15 20.11568 -98.65982 21925 ft 434 kts 268°
2026-04-12 08:15 20.11461 -98.69184 21550 ft 432 kts 267°
2026-04-12 08:15 20.11354 -98.72368 21176 ft 428 kts 267°
2026-04-12 08:15 20.11249 -98.75510 20783 ft 421 kts 267°
2026-04-12 08:16 20.11146 -98.78595 20410 ft 414 kts 267°
2026-04-12 08:16 20.11044 -98.81635 20040 ft 408 kts 267°
2026-04-12 08:16 20.10944 -98.84626 19684 ft 402 kts 267°
2026-04-12 08:16 20.10846 -98.87535 19343 ft 396 kts 267°
2026-04-12 08:17 20.10747 -98.90449 18937 ft 392 kts 267°
2026-04-12 08:17 20.10650 -98.93295 18867 ft 378 kts 267°
2026-04-12 08:17 20.10395 -98.96002 18742 ft 361 kts 254°
2026-04-12 08:17 20.09425 -98.98380 18640 ft 340 kts 235°
2026-04-12 08:18 20.08024 -99.00284 18431 ft 317 kts 230°
2026-04-12 08:18 20.06630 -99.02024 17935 ft 303 kts 229°
2026-04-12 08:18 20.05271 -99.03708 17288 ft 297 kts 229°
2026-04-12 08:18 20.03935 -99.05371 16550 ft 294 kts 229°
2026-04-12 08:19 20.02636 -99.06998 15867 ft 291 kts 229°
2026-04-12 08:19 20.01365 -99.08598 15562 ft 277 kts 229°
2026-04-12 08:19 20.00118 -99.10172 15279 ft 282 kts 229°
2026-04-12 08:19 19.98826 -99.11807 15004 ft 296 kts 229°
2026-04-12 08:20 19.97482 -99.13508 14651 ft 302 kts 229°
2026-04-12 08:20 19.96129 -99.15224 14319 ft 302 kts 229°
2026-04-12 08:20 19.94785 -99.16926 13981 ft 300 kts 229°
2026-04-12 08:20 19.93451 -99.18617 13609 ft 297 kts 229°
2026-04-12 08:21 19.92141 -99.20277 13273 ft 288 kts 229°
2026-04-12 08:21 19.90794 -99.21744 12946 ft 277 kts 212°
2026-04-12 08:21 19.89043 -99.22481 12715 ft 270 kts 189°
2026-04-12 08:21 19.87171 -99.22516 12507 ft 271 kts 174°
2026-04-12 08:22 19.85282 -99.22298 12289 ft 276 kts 174°
2026-04-12 08:22 19.83390 -99.22078 12075 ft 272 kts 174°
2026-04-12 08:22 19.81527 -99.21870 11818 ft 266 kts 174°
2026-04-12 08:22 19.79714 -99.21668 11578 ft 259 kts 174°
2026-04-12 08:23 19.77952 -99.21476 11356 ft 251 kts 174°
2026-04-12 08:23 19.76228 -99.21291 11157 ft 247 kts 175°
2026-04-12 08:23 19.74636 -99.21121 10976 ft 238 kts 175°
2026-04-12 08:23 19.73006 -99.20947 10781 ft 236 kts 175°
2026-04-12 08:24 19.71366 -99.20772 10569 ft 237 kts 175°
2026-04-12 08:24 19.69735 -99.20597 10351 ft 234 kts 174°
2026-04-12 08:24 19.68208 -99.20114 10118 ft 229 kts 151°
2026-04-12 08:24 19.66845 -99.19240 9927 ft 230 kts 147°
2026-04-12 08:25 19.65736 -99.18019 9707 ft 235 kts 116°
2026-04-12 08:25 19.65447 -99.16326 9521 ft 236 kts 85°
2026-04-12 08:25 19.65714 -99.14627 9341 ft 229 kts 80°
2026-04-12 08:25 19.66205 -99.13129 9109 ft 210 kts 56°
2026-04-12 08:26 19.67046 -99.11872 9097 ft 209 kts 53°
2026-04-12 08:26 19.67943 -99.10689 9077 ft 202 kts 50°
2026-04-12 08:26 19.68876 -99.09549 8863 ft 204 kts 49°
2026-04-12 08:26 19.69783 -99.08439 8674 ft 195 kts 49°
2026-04-12 08:27 19.70630 -99.07399 8381 ft 178 kts 49°
2026-04-12 08:27 19.71404 -99.06449 8118 ft 163 kts 47°
2026-04-12 08:27 19.72116 -99.05573 7839 ft 159 kts 48°
2026-04-12 08:27 19.72845 -99.04677 7606 ft 162 kts 48°
2026-04-12 08:28 19.73590 -99.03770 7395 ft 161 kts 45°
2026-04-12 08:28 19.74354 -99.02922 7373 ft 155 kts 47°
2026-04-12 08:28 19.74932 -99.02185 7371 ft 112 kts 54°
2026-04-12 08:28 19.75329 -99.01681 7370 ft 70 kts 49°
2026-04-12 08:29 19.75618 -99.01330 7370 ft 56 kts 48°
2026-04-12 08:29 19.75846 -99.01048 7370 ft 46 kts 50°
2026-04-12 08:29 19.76000 -99.00832 7371 ft 18 kts 64°
2026-04-12 08:29 19.76054 -99.00713 7371 ft 18 kts 54°
2026-04-12 08:30 19.76139 -99.00613 7370 ft 18 kts 48°
2026-04-12 08:30 19.76223 -99.00513 7370 ft 18 kts 49°
2026-04-12 08:30 19.76304 -99.00410 7370 ft 18 kts 52°
2026-04-12 08:30 19.76330 -99.00338 7370 ft 7 kts 105°
2026-04-12 08:31 19.76300 -99.00294 7370 ft 7 kts 130°
2026-04-12 08:31 19.76265 -99.00254 7371 ft 7 kts 133°
2026-04-12 08:31 19.76229 -99.00214 7370 ft 7 kts 135°
2026-04-12 08:31 19.76194 -99.00176 7371 ft 7 kts 134°
2026-04-12 08:32 19.76158 -99.00136 7370 ft 7 kts 133°
2026-04-12 08:32 19.76123 -99.00097 7370 ft 7 kts 134°
2026-04-12 08:32 19.76081 -99.00068 7370 ft 7 kts 181°
2026-04-12 08:32 19.76046 -99.00107 7370 ft 7 kts 234°
2026-04-12 08:33 19.76014 -99.00152 7373 ft 9 kts 232°
2026-04-12 08:33 19.75970 -99.00219 7373 ft 13 kts 247°
2026-04-12 08:33 19.75938 -99.00316 7371 ft 14 kts 243°
2026-04-12 08:33 19.75887 -99.00404 7370 ft 14 kts 235°
2026-04-12 08:34 19.75827 -99.00485 7370 ft 14 kts 230°
2026-04-12 08:34 19.75762 -99.00563 7370 ft 14 kts 229°
2026-04-12 08:34 19.75698 -99.00642 7370 ft 14 kts 230°
2026-04-12 08:34 19.75643 -99.00696 7373 ft 6 kts 187°
2026-04-12 08:35 19.75607 -99.00680 7370 ft 6 kts 141°
2026-04-12 08:35 19.75578 -99.00654 7372 ft 0 kts 140°
2026-04-12 08:36 19.75562 -99.00285 7371 ft 0 kts 126°